Seattle, WA
on Friday, February 1, 2013

Friday
Previous Day Next Day
Daily Summary
 ActualAverageRecord
Temperature
Mean Temperature °F 43°F  
Max Temperature 53°F 49°F 63°F (1962)
Min Temperature 41°F 37°F 1°F (1950)
Degree Days
Heating Degree Days 18 22  
Month to date heating degree days 18 22  
Since 1 July heating degree days 2592 2671  
Cooling Degree Days 0 0  
Month to date cooling degree days 0 0  
Year to date cooling degree days 0 0  
Moisture
Dew Point 42°F   
Average Humidity 84    
Maximum Humidity 100    
Minimum Humidity 68    
Precipitation
Precipitation 0.01 in 0.13 in 1.34 in (2000)
Month to date precipitation 0.01 0.13  
Year to date precipitation 4.17 5.70  
Snow
Snow 0.00 in in 5.80 in (1989)
Month to date snowfall 0.0  
Since 1 July snowfall 0.6  
Snow Depth 0.00 in   
Wind
Wind Speed 6 mph   
Max Wind Speed 16 mph   
Max Gust Speed 20 mph   
Visibility 6 miles   
Events Fog   

Key: T is trace of precipitation, MM is missing value
Source: NWS Daily Summary
Time(PST)TemperatureDew PointHumidity Pressure Visibility Wind DirectionWind SpeedGust SpeedPrecipitationEvents Conditions
12:53 AM 46.0°F 45.0°F 96% 30.36 in 0.8 miles SSW 5.8 mph - N/A   Overcast
1:53 AM 46.0°F 45.0°F 96% 30.38 in 0.8 miles SSW 4.6 mph - 0.01 in   Light Drizzle
2:53 AM 46.0°F 44.1°F 93% 30.39 in 0.8 miles SW 4.6 mph - 0.00 in   Light Drizzle
3:16 AM 44.6°F 44.6°F 100% 30.36 in 0.8 miles SSW 4.6 mph - 0.00 in   Mostly Cloudy
3:36 AM 44.6°F 44.6°F 100% 30.37 in 0.8 miles SW 4.6 mph - 0.00 in   Mostly Cloudy
3:53 AM 45.0°F 43.0°F 93% 30.39 in 3.0 miles WSW 3.5 mph - 0.00 in   Mostly Cloudy
4:17 AM 44.6°F 44.6°F 100% 30.37 in 3.0 miles Calm Calm - N/A   Overcast
4:53 AM 45.0°F 43.0°F 93% 30.40 in 3.0 miles Calm Calm - N/A   Overcast
5:16 AM 44.6°F 42.8°F 93% 30.37 in 3.0 miles WNW 3.5 mph - N/A   Mostly Cloudy
5:53 AM 43.0°F 42.1°F 97% 30.40 in 3.0 miles Calm Calm - N/A   Mostly Cloudy
6:53 AM 46.0°F 41.0°F 83% 30.40 in 10.0 miles Calm Calm - N/A   Mostly Cloudy
7:22 AM 44.6°F 42.8°F 93% 30.37 in 8.0 miles Calm Calm - N/A   Mostly Cloudy
7:53 AM 45.0°F 42.1°F 90% 30.40 in 9.0 miles Calm Calm - N/A   Mostly Cloudy
8:53 AM 44.1°F 42.1°F 93% 30.40 in 6.0 miles NE 3.5 mph - N/A Fog Patches of Fog
9:37 AM 46.4°F 44.6°F 93% 30.38 in 0.5 miles NNW 4.6 mph - N/A Fog Patches of Fog
9:44 AM 46.4°F 44.6°F 93% 30.38 in 0.5 miles North 5.8 mph - N/A Fog Fog
9:53 AM 46.9°F 44.1°F 90% 30.41 in 0.5 miles North 4.6 mph - N/A Fog Fog
10:27 AM 46.4°F 44.6°F 93% 30.40 in 0.5 miles North 4.6 mph - N/A Fog Fog
10:53 AM 46.9°F 43.0°F 86% 30.43 in 2.0 miles NNE 5.8 mph - N/A   Mostly Cloudy
10:59 AM 48.2°F 44.6°F 87% 30.40 in 6.0 miles North 5.8 mph - N/A   Haze
11:53 AM 50.0°F 42.1°F 74% 30.43 in 10.0 miles ENE 5.8 mph - N/A   Mostly Cloudy
12:35 PM 50.0°F 42.8°F 76% 30.40 in 10.0 miles NE 5.8 mph - N/A   Mostly Cloudy
12:53 PM 50.0°F 42.1°F 74% 30.42 in 10.0 miles NNE 6.9 mph - N/A   Mostly Cloudy
1:39 PM 50.0°F 41.0°F 71% 30.38 in 10.0 miles NNE 9.2 mph - N/A   Mostly Cloudy
1:53 PM 51.1°F 42.1°F 71% 30.41 in 10.0 miles North 6.9 mph - N/A   Mostly Cloudy
2:04 PM 50.0°F 42.8°F 76% 30.38 in 10.0 miles NNE 9.2 mph - N/A   Mostly Cloudy
2:53 PM 51.1°F 41.0°F 68% 30.40 in 10.0 miles North 9.2 mph - N/A   Mostly Cloudy
3:53 PM 51.1°F 42.1°F 71% 30.39 in 10.0 miles North 8.1 mph - N/A   Mostly Cloudy
4:53 PM 48.0°F 41.0°F 77% 30.39 in 10.0 miles NNW 8.1 mph - N/A   Mostly Cloudy
5:53 PM 45.0°F 39.9°F 82% 30.39 in 10.0 miles North 6.9 mph - N/A   Scattered Clouds
6:53 PM 46.0°F 41.0°F 83% 30.40 in 10.0 miles North 8.1 mph - N/A   Mostly Cloudy
7:53 PM 46.0°F 41.0°F 83% 30.40 in 10.0 miles North 10.4 mph - N/A   Mostly Cloudy
8:15 PM 46.4°F 39.2°F 76% 30.38 in 10.0 miles North 15.0 mph - N/A   Scattered Clouds
8:53 PM 45.0°F 39.9°F 82% 30.41 in 10.0 miles North 12.7 mph - N/A   Scattered Clouds
9:53 PM 44.1°F 39.9°F 85% 30.41 in 9.0 miles North 16.1 mph - N/A   Partly Cloudy
10:53 PM 43.0°F 39.9°F 89% 30.40 in 6.0 miles North 6.9 mph - N/A   Scattered Clouds
11:26 PM 42.8°F 39.2°F 87% 30.37 in 4.0 miles North 6.9 mph - N/A   Scattered Clouds
11:53 PM 43.0°F 39.9°F 89% 30.39 in 3.0 miles North 15.0 mph - N/A   Overcast
Moon Phase
Feb. 01 Feb. 03 Feb. 10 Feb. 17 Feb. 25
Sunrise:07:34 AM (PST) Moon Rise:11:55 PM (PST)2/1
Sunset:05:11 PM (PST) Moon Set:09:43 AM (PST)2/1

Copyright © 2014 The Weather Underground, Inc.